Regional Weather Roundup
Issued by NWS Kansas City/Pleasant Hill, MO

Home | Current Version | Previous Version | Graphics & Text | Print | Product List | Glossary Off
Versions: 1 2 3 4 5 6 7 8 9 10 11 12 13 14 15 16 17 18 19 20 21 22 23 24 25 26 27

000
ASUS43 KEAX 190810
RWREAX

WEATHER ROUNDUP FOR EASTERN KANSAS AND NORTHWEST MISSOURI
NATIONAL WEATHER SERVICE KANSAS CITY/PLEASANT HILL MO
300 AM CDT SAT MAY 19 2018

KSZ040-057-103>105-MOZ028-029-037-043-190900-
...KANSAS CITY METROPOLITAN AREA...

CITY           SKY/WX    TMP DP  RH WIND       PRES   REMARKS
K.C. INTL      CLOUDY    68  63  84 SE9       29.86S
K.C. DOWNTOWN  CLOUDY    70  62  76 E6        29.86R
LEES SUMMIT    MOCLDY    66  63  90 E6        29.87R
OLATHE - IXD   CLOUDY    70  63  78 E6        29.86S
OLATHE - OJC   CLOUDY    67  63  87 E5        29.86R
LAWRENCE       CLOUDY    69  64  84 E6        29.85R

$$

MOZ001>008-011>017-020>025-030>033-038>040-044>046-053-054-190900-
...NORTHERN AND CENTRAL MISSOURI...

CITY           SKY/WX    TMP DP  RH WIND       PRES   REMARKS
ST. JOSEPH     CLOUDY    68  64  87 SE3       29.86R
MOSBY          PTSUNNY   64  63  94 CALM      29.87S
WARRENSBURG    CLOUDY    63  61  94 N3        29.86F
WHITEMAN AFB   CLOUDY    63  62  97 E3        29.83R
CLINTON        MOCLDY    66  64  94 CALM      29.87S
SEDALIA        PTCLDY    65  65 100 E3        29.88S
WARSAW         NOT AVBL
CHILLICOTHE      N/A     63  62  97 CALM      29.88S
KIRKSVILLE     FOG       57  57 100 N3        29.88F VSB 1/4

$$

MOZ041-047>049-056>058-063>065-088>090-097-190900-
...EASTERN AND SOUTHERN MISSOURI...

CITY           SKY/WX    TMP DP  RH WIND       PRES   REMARKS
ST. LOUIS INTL CLOUDY    66  66 100 W3        29.86R FOG
SPIRIT OF STL  CLOUDY    67  66  97 W3        29.85S
COLUMBIA       FOG       61  59  93 CALM      29.88R VSB 1/4
JEFFERSON CITY FOG       62  62 100 CALM      29.87R VSB 1/4
ROLLA          FOG       59  58  96 CALM      29.89R VSB 1/2
OSAGE BEACH    PTCLDY    62  61  96 SE3       29.88S
SPRINGFIELD    CLOUDY    69  61  75 E6        29.84S
BRANSON        MOCLDY    66  64  94 CALM      29.88F
JOPLIN         CLOUDY    71  61  70 SE8       29.82F
WEST PLAINS    PTCLDY    61  59  93 CALM      29.89R

$$

IAZ060-094-KSZ022-034>040-054-083-096-NEZ052-066-093-190900-
...KANSAS...SOUTHEAST NEBRASKA AND IOWA...

CITY           SKY/WX    TMP DP  RH WIND       PRES   REMARKS
TOPEKA         LGT RAIN  69  66  90 NW5       29.86R
MANHATTAN      TSTM      64  63  96 SW6       29.89F FOG
EMPORIA        LGT RAIN  66  61  84 SW15G28   29.89R
CHANUTE        TSTM      70  63  78 W31G41    29.90R
WICHITA        CLOUDY    66  64  93 W16       29.89R THUNDER
OMAHA          CLOUDY    66  58  75 N6        29.84F
LINCOLN        CLOUDY    65  57  75 N3        29.86R
FALLS CITY     CLOUDY    71  61  70 S6        29.86R
LAMONI         CLOUDY    62  59  90 E5        29.86F
DES MOINES     MOCLDY    65  61  87 S3        29.87F

$$





USA.gov is the U.S. government's official web portal to all federal, state and local government web resources and services.